When you browse on this site, cookies collect data to enhance your experience and personalize the content and advertising you see.
Visit our Privacy Policy to learn more. By continuing to use the site, you agree to this use of cookies and data.

Hourly Weather Salamanca

Today, 15 July, Wednesday

Time Temperature Precipitation Wind Pressure Humidity
00:00 +16°C° 0 mm 6 mps 694 mmHg 51%
01:00 +15°C° 0 mm 6 mps 693 mmHg 50%
02:00 +15°C° 0 mm 6 mps 693 mmHg 49%
03:00 +14°C° 0 mm 6 mps 693 mmHg 49%
04:00 +14°C° 0 mm 6 mps 693 mmHg 53%
05:00 +14°C° 0 mm 6 mps 694 mmHg 57%
06:00 +13°C° 0 mm 6 mps 694 mmHg 61%
07:00 +15°C° 0 mm 6 mps 694 mmHg 55%
08:00 +18°C° 0 mm 7 mps 695 mmHg 49%
09:00 +21°C° 0 mm 7 mps 695 mmHg 44%
10:00 +23°C° 0 mm 7 mps 695 mmHg 37%
11:00 +26°C° 0 mm 7 mps 696 mmHg 31%
12:00 +29°C° 0 mm 6 mps 696 mmHg 24%
13:00 +29°C° 0 mm 6 mps 696 mmHg 24%
14:00 +30°C° 0 mm 6 mps 695 mmHg 23%
15:00 +32°C° 0 mm 7 mps 695 mmHg 22%
16:00 +30°C° 0 mm 6 mps 695 mmHg 24%
17:00 +30°C° 0 mm 6 mps 695 mmHg 27%
18:00 +29°C° 0 mm 6 mps 694 mmHg 29%
19:00 +27°C° 0 mm 6 mps 695 mmHg 35%
20:00 +24°C° 0 mm 6 mps 695 mmHg 41%
21:00 +22°C° 0 mm 6 mps 695 mmHg 47%
22:00 +21°C° 0 mm 5 mps 695 mmHg 51%
23:00 +19°C° 0 mm 5 mps 695 mmHg 55%

Tomorrow, 16 July, Thursday

Time Temperature Precipitation Wind Pressure Humidity
00:00 +18°C° 0 mm 4 mps 695 mmHg 59%
01:00 +18°C° 0 mm 4 mps 695 mmHg 60%
02:00 +17°C° 0 mm 4 mps 695 mmHg 60%
03:00 +15°C° 0 mm 4 mps 695 mmHg 61%
04:00 +15°C° 0 mm 4 mps 695 mmHg 61%
05:00 +15°C° 0 mm 4 mps 695 mmHg 60%
06:00 +15°C° 0 mm 4 mps 695 mmHg 60%
07:00 +19°C° 0 mm 4 mps 695 mmHg 52%
08:00 +21°C° 0 mm 4 mps 696 mmHg 45%
09:00 +25°C° 0 mm 4 mps 696 mmHg 37%
10:00 +27°C° 0 mm 4 mps 696 mmHg 32%
11:00 +29°C° 0 mm 4 mps 696 mmHg 27%
12:00 +31°C° 0 mm 3 mps 696 mmHg 22%
13:00 +33°C° 0 mm 4 mps 696 mmHg 21%
14:00 +34°C° 0 mm 4 mps 696 mmHg 19%
15:00 +35°C° 0 mm 4 mps 695 mmHg 18%
16:00 +35°C° 0 mm 4 mps 695 mmHg 18%
17:00 +34°C° 0 mm 5 mps 695 mmHg 19%
18:00 +34°C° 0 mm 5 mps 695 mmHg 19%
19:00 +30°C° 0 mm 5 mps 695 mmHg 24%
20:00 +27°C° 0 mm 6 mps 694 mmHg 30%
21:00 +24°C° 0 mm 6 mps 694 mmHg 35%
22:00 +22°C° 0 mm 5 mps 694 mmHg 39%
23:00 +21°C° 0 mm 5 mps 694 mmHg 44%

Day after tomorrow, 17 July, Friday

Time Temperature Precipitation Wind Pressure Humidity
00:00 +20°C° 0 mm 4 mps 694 mmHg 48%
01:00 +19°C° 0 mm 4 mps 694 mmHg 50%
02:00 +18°C° 0 mm 4 mps 694 mmHg 52%
03:00 +17°C° 0 mm 4 mps 694 mmHg 54%
04:00 +17°C° 0 mm 4 mps 694 mmHg 54%
05:00 +17°C° 0 mm 4 mps 694 mmHg 55%
06:00 +17°C° 0 mm 4 mps 694 mmHg 55%
07:00 +19°C° 0 mm 4 mps 694 mmHg 46%
08:00 +22°C° 0 mm 5 mps 695 mmHg 38%
09:00 +26°C° 0 mm 5 mps 695 mmHg 29%
10:00 +28°C° 0 mm 5 mps 695 mmHg 24%
11:00 +30°C° 0 mm 5 mps 695 mmHg 19%
12:00 +33°C° 0 mm 5 mps 696 mmHg 15%
13:00 +34°C° 0 mm 4 mps 695 mmHg 14%
14:00 +35°C° 0 mm 4 mps 695 mmHg 13%
15:00 +36°C° 0 mm 4 mps 695 mmHg 12%
16:00 +35°C° 0 mm 4 mps 694 mmHg 12%
17:00 +35°C° 0 mm 5 mps 694 mmHg 12%
18:00 +34°C° 0 mm 5 mps 694 mmHg 12%
19:00 +30°C° 0 mm 5 mps 694 mmHg 19%
20:00 +27°C° 0 mm 6 mps 694 mmHg 25%
21:00 +23°C° 0 mm 6 mps 694 mmHg 31%
22:00 +22°C° 0 mm 5 mps 693 mmHg 36%
23:00 +21°C° 0 mm 5 mps 693 mmHg 41%

18 July, Saturday

Time Temperature Precipitation Wind Pressure Humidity
00:00 +19°C° 0 mm 4 mps 693 mmHg 47%
01:00 +18°C° 0 mm 4 mps 693 mmHg 47%
02:00 +18°C° 0 mm 3 mps 693 mmHg 47%
03:00 +17°C° 0 mm 3 mps 693 mmHg 47%
04:00 +17°C° 0 mm 3 mps 693 mmHg 47%
05:00 +17°C° 0 mm 3 mps 693 mmHg 48%
06:00 +17°C° 0 mm 3 mps 693 mmHg 48%
07:00 +20°C° 0 mm 3 mps 693 mmHg 40%
08:00 +24°C° 0 mm 3 mps 694 mmHg 32%
09:00 +27°C° 0 mm 3 mps 694 mmHg 24%
10:00 +30°C° 0 mm 3 mps 694 mmHg 20%
11:00 +33°C° 0 mm 3 mps 694 mmHg 16%
12:00 +36°C° 0 mm 3 mps 695 mmHg 12%
13:00 +36°C° 0 mm 3 mps 694 mmHg 12%
14:00 +37°C° 0 mm 3 mps 694 mmHg 12%
15:00 +38°C° 0 mm 3 mps 693 mmHg 12%
16:00 +38°C° 0 mm 3 mps 693 mmHg 12%
17:00 +37°C° 0 mm 4 mps 693 mmHg 13%
18:00 +37°C° 0 mm 4 mps 692 mmHg 13%
19:00 +34°C° 0 mm 4 mps 692 mmHg 15%
20:00 +32°C° 0 mm 4 mps 692 mmHg 17%
21:00 +28°C° 0 mm 4 mps 692 mmHg 19%
22:00 +27°C° 0 mm 4 mps 692 mmHg 22%
23:00 +25°C° 0 mm 3 mps 692 mmHg 24%

19 July, Sunday

Time Temperature Precipitation Wind Pressure Humidity
00:00 +24°C° 0 mm 3 mps 692 mmHg 26%
01:00 +24°C° 0 mm 3 mps 692 mmHg 28%
02:00 +23°C° 0 mm 2 mps 692 mmHg 29%
03:00 +21°C° 0 mm 2 mps 692 mmHg 31%
04:00 +21°C° 0 mm 2 mps 692 mmHg 33%
05:00 +22°C° 0 mm 1 mps 692 mmHg 36%
06:00 +22°C° 0 mm 1 mps 692 mmHg 38%
07:00 +25°C° 0 mm 2 mps 693 mmHg 33%
08:00 +28°C° 0 mm 2 mps 694 mmHg 27%
09:00 +31°C° 0 mm 2 mps 694 mmHg 22%
10:00 +34°C° 0 mm 3 mps 694 mmHg 21%
11:00 +36°C° 0 mm 4 mps 694 mmHg 19%
12:00 +39°C° 0 mm 5 mps 695 mmHg 18%
13:00 +39°C° 0 mm 5 mps 694 mmHg 17%
14:00 +40°C° 0 mm 5 mps 694 mmHg 16%
15:00 +40°C° 0 mm 6 mps 694 mmHg 15%
16:00 +39°C° 0 mm 6 mps 693 mmHg 16%
17:00 +39°C° 0 mm 5 mps 693 mmHg 16%
18:00 +37°C° 0 mm 5 mps 693 mmHg 17%
19:00 +34°C° 0 mm 5 mps 693 mmHg 21%
20:00 +32°C° 0 mm 4 mps 693 mmHg 25%
21:00 +28°C° 0 mm 3 mps 693 mmHg 29%
22:00 +27°C° 0 mm 2 mps 693 mmHg 35%
23:00 +25°C° 0 mm 2 mps 693 mmHg 42%

20 July, Monday

Time Temperature Precipitation Wind Pressure Humidity
00:00 +24°C° 0 mm 2 mps 693 mmHg 49%
01:00 +23°C° 0 mm 2 mps 693 mmHg 54%
02:00 +21°C° 0 mm 2 mps 693 mmHg 60%
03:00 +20°C° 0 mm 3 mps 693 mmHg 65%
04:00 +19°C° 0 mm 3 mps 693 mmHg 66%
05:00 +19°C° 0 mm 3 mps 693 mmHg 67%
06:00 +19°C° 0 mm 3 mps 693 mmHg 68%
07:00 +23°C° 0 mm 2 mps 694 mmHg 59%
08:00 +25°C° 0 mm 2 mps 694 mmHg 50%
09:00 +28°C° 0 mm 2 mps 695 mmHg 40%
10:00 +30°C° 0 mm 2 mps 695 mmHg 35%
11:00 +32°C° 0 mm 2 mps 695 mmHg 29%
12:00 +35°C° 0 mm 2 mps 695 mmHg 23%
13:00 +36°C° 0 mm 3 mps 694 mmHg 21%
14:00 +37°C° 0 mm 4 mps 694 mmHg 19%
15:00 +37°C° 0 mm 4 mps 694 mmHg 16%
16:00 +37°C° 0 mm 4 mps 694 mmHg 16%
17:00 +36°C° 0 mm 4 mps 693 mmHg 16%
18:00 +36°C° 0 mm 4 mps 693 mmHg 16%
19:00 +33°C° 0 mm 4 mps 693 mmHg 23%
20:00 +29°C° 0 mm 4 mps 693 mmHg 29%
21:00 +26°C° 0 mm 3 mps 693 mmHg 36%
22:00 +25°C° 0 mm 3 mps 693 mmHg 37%
23:00 +24°C° 0 mm 2 mps 693 mmHg 38%
Show more